Tracking 19644 objects as of 26-Apr-2019
HD Live streaming from Space Station
objects crossing your sky now

SL-14 DEB

Track SL-14 DEB now!
10-day predictions


NORAD ID: 35525
Int'l Code: 1987-068CU
Perigee: 946.9 km
Apogee: 976.5 km
Inclination: 82.5 °
Period: 104.1 minutes
Semi major axis: 7332 km
RCS: 0.0106 m2 (small)
Launch date: August 18, 1987
Source: Commonwealth of Independent States (former USSR) (CIS)
Launch site: PLESETSK MISSILE AND SPACE COMPLEX (PKMTR)

Note: This is SATELLITE DEBRIS
aabbcc
Your satellite tracking list
Your tracking list is empty




NASA's NSSDC Master Catalog

Two Line Element Set (TLE):
1 35525U 87068CU  19115.62890227  .00000073  00000-0  53364-4 0  9997
2 35525  82.5485 226.3558 0020131 354.7392  68.2377 13.82630623804576
Source of the keplerian elements: AFSPC